Hourly Data Report for October 30, 2014

All times are specified in Local Standard Time (LST). Add 1 hour to adjust for Daylight Saving Time where and when it is observed.

BATHURST A
NEW BRUNSWICK

47°37'47.000" N
65°44'20.000" W
58.80 m
8100505
71574
ZBF

Download Data

Hourly Data (October 2014)
Hourly Data Report for October 30, 2014
Temp Definition
°C
Dew Point Temp Definition
°C
Rel Hum Definition
%
Wind Dir Definition
10's deg

Wind Spd Definition
km/h
Visibility Definition
km
Stn Press Definition
kPa
Hmdx Definition


Wind Chill Definition


Weather Definition


TIME
00:00 Legend Double Dagger 7.4 7.3 99 24 4 8.1 99.61     Rain Showers,Fog
01:00 Legend Double Dagger 9.6 8.2 91 27 10 9.7 99.55     Rain Showers,Fog
02:00 Legend Double Dagger 9.3 7.1 86 27 12 24.1 99.61     Mostly Cloudy
03:00 Legend Double Dagger 7.2 5.7 90 24 11 24.1 99.62     LegendNANA
04:00 Legend Double Dagger 5.7 4.4 91 25 10 24.1 99.65     LegendNANA
05:00 Legend Double Dagger 5.3 3.8 90 24 8 24.1 99.68     Clear
06:00 Legend Double Dagger 4.6 3.3 91 25 8 24.1 99.75     LegendNANA
07:00 Legend Double Dagger 6.4 3.7 83 27 17 24.1 99.80     LegendNANA
08:00 Legend Double Dagger 6.7 3.3 79 27 19 24.1 99.88     Clear
09:00 Legend Double Dagger 7.3 2.6 72 29 14 24.1 99.97     LegendNANA
10:00 Legend Double Dagger 8.0 2.1 66 30 18 24.1 100.01     LegendNANA
11:00 Legend Double Dagger 9.3 1.7 59 29 15 24.1 100.02     Mainly Clear
12:00 Legend Double Dagger 9.3 0.5 54 28 17 24.1 100.04     LegendNANA
13:00 Legend Double Dagger 9.6 0.3 52 26 27 24.1 100.03     LegendNANA
14:00 Legend Double Dagger 8.6 -0.2 54 29 16 24.1 100.07     Mostly Cloudy
15:00 Legend Double Dagger 8.7 -0.9 51 28 16 24.1 100.12     LegendNANA
16:00 Legend Double Dagger 8.5 -1.3 50 28 12 24.1 100.20     LegendNANA
17:00 Legend Double Dagger 7.5 -1.7 52 28 10 24.1 100.29     Mostly Cloudy
18:00 Legend Double Dagger 7.2 -2.3 51 28 14 24.1 100.36     LegendNANA
19:00 Legend Double Dagger 6.7 -1.5 56 30 8 24.1 100.43     LegendNANA
20:00 Legend Double Dagger 5.1 -0.1 69 25 5 24.1 100.46     Cloudy
21:00 Legend Double Dagger 5.7 -0.6 64 27 7 24.1 100.51     LegendNANA
22:00 Legend Double Dagger 5.0 -0.6 67 26 12 24.1 100.54     LegendNANA
23:00 Legend Double Dagger 3.3 -1.1 73 26 10 24.1 100.53     Mainly Clear

Notes on Data Quality.

Legend

  • E = Estimated
  • M = Missing
  • NA = Not Available
  • ‡ = Partner data that is not subject to review by the National Climate Archives
Date modified: